User: anonymous   Login
Location: Oshawa
(43.9000°N, 78.8670°W)
Time: 18:07:18
(UTC-04:00)
Language:

Thor Agena Rocket - Orbit

View from above orbital plane
View from above orbital plane
View from above satellite
View from above satellite

Ground track
Ground track

The orbit data is extracted from the following two-line orbital elements,

1   733U 64002A   17080.90978648 +.00000036 +00000-0 +30959-4 0  9991
2   733 099.1226 261.8034 0034829 072.8012 287.6977 14.32262333769393
Epoch (UTC): 21 March 2017 21:50:05
Eccentricity: 0.0034829
inclination: 99.1226°
perigee height: 759 km
apogee height: 809 km
right ascension of ascending node: 261.8034°
argument of perigee: 72.8012°
revolutions per day: 14.32262333
mean anomaly at epoch: 287.6977°
orbit number at epoch: 76939

The dashed part of the orbit path shows where the satellite is in the earth's shadow,  

DLR